Date String (YYYY-MM-DD hh:mm:ss) UTC,Instrument flags,Ambient pressure (hPa),Sample flow (lpm),Bypass flow (lpm),Sample temperature (°C),Ambient temperature (°C),ASC tube jacket temperature (°C),LED temperature (°C),Box temperature (°C),Sample RH (%),Span deviation,Mass concentration (μg/m³),Mass concentration (μg/m³),Mass concentration (μg/m³)
DateTimeUTC,F1_M11,P_M11,Q1_M11,Q2_M11,T1_M11,T2_M11,T3_M11,T4_M11,T5_M11,U1_M11,ZSPAN_M11,X2_M11,X0_M11,X1_M11
2021-12-26 15:00:00,,0809.7,4.99,0.00,22.4,21.7,00.0,31.5,24.0,10.0,0000.0,0000.87,0002.20,0000.71
2021-12-26 15:01:00,,0809.8,5.00,0.00,22.4,21.7,00.0,31.5,24.0,11.1,0000.0,0000.83,0002.12,0000.68
2021-12-26 15:02:00,,0809.7,5.01,0.00,22.4,21.7,00.0,31.4,24.0,11.2,0000.0,0000.82,0002.24,0000.66
2021-12-26 15:03:00,,0809.7,4.99,0.00,22.4,21.7,00.0,31.4,24.0,11.3,0000.0,0000.79,0002.21,0000.63
2021-12-26 15:04:00,,0809.7,5.01,0.00,22.4,21.7,00.0,31.4,24.0,11.5,0000.0,0000.76,0002.17,0000.61
2021-12-26 15:05:00,,0809.7,5.01,0.00,22.4,21.6,00.0,31.4,24.0,11.8,0000.0,0000.76,0002.22,0000.59
2021-12-26 15:06:00,,0809.7,4.99,0.00,22.4,21.6,00.0,31.4,24.0,11.4,0000.0,0000.71,0002.07,0000.56
2021-12-26 15:07:00,,0809.7,5.01,0.00,22.4,21.6,00.0,31.4,24.0,11.8,0000.0,0000.67,0002.37,0000.53
2021-12-26 15:08:00,,0809.7,4.99,0.00,22.4,21.6,00.0,31.4,24.0,12.5,0000.0,0000.65,0002.27,0000.52
2021-12-26 15:09:00,,0809.7,5.01,0.00,22.4,21.6,00.0,31.4,24.1,13.5,0000.0,0000.63,0002.14,0000.49
2021-12-26 15:10:00,,0809.7,5.00,0.00,22.4,21.6,00.0,31.4,24.0,13.9,0000.0,0000.61,0002.11,0000.46
2021-12-26 15:11:00,,0809.7,5.01,0.00,22.4,21.6,00.0,31.4,24.0,14.4,0000.0,0000.59,0001.97,0000.45
2021-12-26 15:12:00,,0809.8,5.01,0.00,22.4,21.6,00.0,31.4,24.0,14.3,0000.0,0000.60,0001.98,0000.45
2021-12-26 15:13:00,,0809.9,4.98,0.00,22.4,21.6,00.0,31.4,24.0,14.2,0000.0,0000.56,0002.73,0000.43
2021-12-26 15:14:00,,0809.9,5.01,0.00,22.4,22.1,00.0,31.5,24.2,14.3,0000.0,0000.54,0003.19,0000.41
2021-12-26 15:15:00,,0809.9,5.00,0.00,22.6,23.0,00.0,31.5,24.5,14.4,0000.0,0000.53,0003.25,0000.39
2021-12-26 15:16:00,,0809.9,5.00,0.00,22.8,23.6,00.0,31.6,24.8,14.4,0000.0,0000.50,0003.28,0000.38
2021-12-26 15:17:00,,0810.0,4.99,0.00,22.8,23.5,00.0,31.6,24.8,14.4,0000.0,0000.50,0003.34,0000.37
2021-12-26 15:18:00,,0810.0,5.01,0.00,22.9,23.3,00.0,31.6,24.8,14.4,0000.0,0000.49,0002.75,0000.35
2021-12-26 15:19:00,,0809.9,5.00,0.00,22.9,23.1,00.0,31.7,24.7,14.3,0000.0,0000.46,0002.36,0000.34
2021-12-26 15:20:00,,0809.9,5.00,0.00,22.9,22.9,00.0,31.7,24.7,14.3,0000.0,0000.46,0002.37,0000.33
2021-12-26 15:21:00,,0809.9,5.01,0.00,22.9,22.7,00.0,31.7,24.6,14.4,0000.0,0000.46,0002.38,0000.32
2021-12-26 15:22:00,,0809.9,4.99,0.00,22.9,22.6,00.0,31.7,24.6,14.4,0000.0,0000.46,0002.37,0000.32
2021-12-26 15:23:00,,0809.9,5.01,0.00,22.8,22.5,00.0,31.7,24.6,14.4,0000.0,0000.42,0002.31,0000.29
2021-12-26 15:24:00,,0810.0,5.00,0.00,22.8,22.4,00.0,31.7,24.6,14.4,0000.0,0000.41,0001.52,0000.29
2021-12-26 15:25:00,,0809.8,5.00,0.00,22.8,22.3,00.0,31.7,24.5,14.6,0000.0,0000.40,0000.98,0000.28
2021-12-26 15:26:00,,0809.7,4.99,0.00,22.8,22.2,00.0,31.7,24.5,14.6,0000.0,0000.41,0000.96,0000.28
2021-12-26 15:27:00,,0809.7,4.99,0.00,22.8,22.2,00.0,31.7,24.5,14.7,0000.0,0000.40,0000.91,0000.27
2021-12-26 15:28:00,,0809.7,5.01,0.00,22.8,22.1,00.0,31.7,24.4,14.8,0000.0,0000.39,0000.83,0000.26
2021-12-26 15:29:00,,0809.6,5.00,0.00,22.8,22.0,00.0,31.7,24.4,15.0,0000.0,0000.38,0000.78,0000.25
2021-12-26 15:30:00,,0809.5,5.01,0.00,22.8,22.0,00.0,31.7,24.4,15.0,0000.0,0000.40,0000.83,0000.25
2021-12-26 15:31:00,,0809.7,5.00,0.00,22.8,22.0,00.0,31.7,24.5,15.0,0000.0,0000.41,0000.87,0000.25
2021-12-26 15:32:00,,0809.8,5.01,0.00,22.8,22.0,00.0,31.7,24.5,15.0,0000.0,0000.42,0001.00,0000.25
2021-12-26 15:33:00,,0809.7,5.01,0.00,22.8,22.0,00.0,31.7,24.5,15.0,0000.0,0000.41,0002.06,0000.25
2021-12-26 15:34:00,,0809.7,4.99,0.00,22.8,22.0,00.0,31.7,24.5,15.0,0000.0,0000.41,0002.06,0000.25
2021-12-26 15:35:00,,0809.7,5.00,0.00,22.8,22.0,00.0,31.7,24.4,15.0,0000.0,0000.43,0002.07,0000.25
2021-12-26 15:36:00,,0809.7,4.99,0.00,22.8,22.0,00.0,31.7,24.4,15.0,0000.0,0000.45,0002.04,0000.24
2021-12-26 15:37:00,,0809.7,4.99,0.00,22.7,22.0,00.0,31.7,24.4,15.1,0000.0,0000.44,0002.02,0000.24
2021-12-26 15:38:00,,0809.5,5.01,0.00,22.7,22.0,00.0,31.7,24.4,15.1,0000.0,0000.44,0002.06,0000.23
2021-12-26 15:39:00,,0809.5,4.99,0.00,22.7,22.0,00.0,31.7,24.4,15.1,0000.0,0000.46,0002.13,0000.23
2021-12-26 15:40:00,,0809.4,5.00,0.00,22.7,22.0,00.0,31.7,24.4,15.1,0000.0,0000.48,0002.31,0000.23
2021-12-26 15:41:00,,0809.4,4.99,0.00,22.7,22.0,00.0,31.7,24.4,15.1,0000.0,0000.46,0002.35,0000.23
2021-12-26 15:42:00,,0809.4,5.01,0.00,22.8,22.0,00.0,31.7,24.4,15.0,0000.0,0000.45,0002.33,0000.22
2021-12-26 15:43:00,,0809.4,4.99,0.00,22.8,22.0,00.0,31.7,24.4,15.0,0000.0,0000.46,0002.34,0000.22
2021-12-26 15:44:00,,0809.4,4.99,0.00,22.8,22.0,00.0,31.7,24.4,15.0,0000.0,0000.49,0001.27,0000.22
2021-12-26 15:45:00,,0809.4,5.02,0.00,22.8,22.0,00.0,31.7,24.5,15.0,0000.0,0000.52,0001.32,0000.22
2021-12-26 15:46:00,,0809.5,5.00,0.00,22.8,22.0,00.0,31.7,24.5,14.9,0000.0,0000.53,0001.40,0000.22
2021-12-26 15:47:00,,0809.4,4.99,0.00,22.8,22.0,00.0,31.7,24.5,14.9,0000.0,0000.54,0001.48,0000.22
2021-12-26 15:48:00,,0809.4,5.00,0.00,22.8,22.0,00.0,31.7,24.5,14.8,0000.0,0000.54,0001.47,0000.21
2021-12-26 15:49:00,,0809.4,4.99,0.00,22.8,22.0,00.0,31.7,24.5,14.8,0000.0,0000.51,0001.35,0000.21
2021-12-26 15:50:00,,0809.4,5.02,0.00,22.8,22.0,00.0,31.7,24.5,14.7,0000.0,0000.48,0001.27,0000.20
2021-12-26 15:51:00,,0809.4,4.98,0.00,22.8,22.0,00.0,31.7,24.5,14.6,0000.0,0000.48,0001.15,0000.20
2021-12-26 15:52:00,,0809.4,5.01,0.00,22.8,22.0,00.0,31.8,24.5,14.6,0000.0,0000.49,0001.11,0000.19
2021-12-26 15:53:00,,0809.4,4.99,0.00,22.9,22.0,00.0,31.8,24.5,14.6,0000.0,0000.49,0001.10,0000.19
2021-12-26 15:54:00,,0809.4,5.01,0.00,22.9,22.0,00.0,31.8,24.6,14.6,0000.0,0000.48,0001.18,0000.19
2021-12-26 15:55:00,,0809.3,5.00,0.00,22.9,22.1,00.0,31.8,24.6,14.5,0000.0,0000.44,0001.08,0000.19
2021-12-26 15:56:00,,0809.2,4.99,0.00,22.9,22.1,00.0,31.8,24.6,14.6,0000.0,0000.44,0001.65,0000.18
2021-12-26 15:57:00,,0809.2,5.00,0.00,22.9,22.2,00.0,31.8,24.7,14.6,0000.0,0000.42,0001.56,0000.18
2021-12-26 15:58:00,,0809.2,4.99,0.00,22.9,22.2,00.0,31.8,24.7,14.6,0000.0,0000.39,0001.44,0000.18
2021-12-26 15:59:00,,0809.4,5.02,0.00,22.9,22.2,00.0,31.8,24.8,14.4,0000.0,0000.36,0001.36,0000.18
